RH
59 69 73 75 80 83 81 81 82 81 81 85 84 82 76 71 62 59 54 53 53 51 50 49 50 49 50 50 48 48 50 49 52 55 51 54 50 50 51 48 35 28 33
53 59 65 73 73 73 74 76 78 83 90 85 77 72 68 63 60 60 59 56 54 54 52 52 51 50 53 53 50 48 48 48 52 52 52 51 52 52 50 42 34 26 27
44 48 51 60 70 72 74 78 78 79 75 72 68 64 61 61 61 60 57 58 58 58 56 56 54 51 53 55 52 51 52 51 52 53 54 55 48 44 37 32 31 30 28
41 44 46 50 55 62 63 63 63 62 62 60 59 57 56 55 55 56 56 56 58 61 63 61 59 58 58 57 58 56 54 56 59 59 61 45 36 32 31 30 28 27 25
42 43 45 47 50 53 52 53 53 54 53 52 53 54 54 53 53 54 56 56 57 61 67 69 68 66 67 64 63 60 61 64 63 52 41 36 30 30 27 26 27 28 26
47 47 47 48 52 54 56 56 56 56 55 55 55 56 58 58 57 58 59 62 63 65 67 70 72 74 68 73 74 72 66 52 43 39 41 38 34 30 31 31 32 31 29
51 52 54 55 55 57 59 60 61 59 56 55 56 58 58 60 61 64 66 69 69 69 71 72 69 60 49 45 42 42 42 42 41 42 37 37 37 38 37 35 34 33 31
56 59 59 60 61 64 66 64 60 60 61 62 62 62 63 64 66 69 73 73 75 75 76 68 54 51 49 47 47 52 50 42 44 40 46 44 46 42 40 39 37 36 34
66 65 64 65 67 69 67 67 68 68 67 68 69 69 68 68 68 70 74 80 78 71 57 51 50 51 49 57 54 51 50 48 49 50 48 49 47 45 44 42 40 38 36
72 73 72 73 74 73 75 77 76 75 74 71 71 71 72 72 73 77 85 74 64 56 54 52 51 57 60 56 53 50 52 55 53 52 51 50 52 53 51 47 44 42 40
76 79 80 78 79 80 78 76 76 73 72 71 71 70 75 76 81 77 71 67 61 59 54 54 54 57 57 54 53 54 53 53 53 53 51 52 57 59 58 55 53 50 49
69 75 78 80 82 83 80 77 75 71 72 72 72 75 77 79 83 77 67 61 58 57 59 58 61 56 54 51 51 55 56 53 53 56 54 55 58 60 63 61 60 59 57
66 71 75 77 79 78 76 75 74 72 74 71 72 78 80 88 87 75 65 57 52 54 52 49 49 50 52 51 55 56 54 53 55 56 55 57 60 60 64 70 70 68 64
66 68 73 76 76 75 75 74 75 75 74 76 80 79 86 94 84 71 59 53 48 44 42 41 41 43 46 48 49 50 51 52 52 53 55 58 64 65 72 79 76 72 67
74 73 73 74 73 74 76 78 78 81 84 87 84 84 87 92 84 67 54 46 44 42 41 42 42 43 44 44 45 46 47 48 49 51 59 71 72 76 83 77 74 73 69
88 87 84 83 81 80 80 83 87 92 93 94 94 93 94 95 81 61 50 45 45 46 45 44 42 43 44 45 47 49 50 54 64 72 74 80 81 81 76 74 74 73 74
92 89 89 90 91 91 90 91 95 97 98 98 98 97 95 92 80 64 54 51 56 52 47 44 45 47 49 52 57 62 68 69 69 69 73 81 87 83 77 76 76 77 77
76 85 88 86 87 91 92 92 94 97 96 98 98 98 98 98 96 82 68 66 63 62 59 56 51 51 51 50 51 53 55 58 60 62 70 75 83 83 80 81 79 78 80
85 81 78 80 83 81 81 85 91 93 95 95 96 96 97 98 98 96 89 80 75 74 70 72 72 70 63 60 65 69 68 69 71 75 77 81 93 88 90 84 81 79 83
86 90 88 86 83 78 78 79 82 86 90 90 91 93 93 91 91 92 90 86 81 78 79 83 91 94 83 92 94 90 87 87 85 87 91 96 97 96 90 86 83 86 87
85 88 90 92 90 90 90 86 78 79 85 88 91 91 90 87 88 91 91 89 87 88 88 86 87 90 93 95 96 95 94 93 93 92 90 93 94 97 97 97 92 90 97
81 82 82 82 78 77 80 85 92 86 79 85 92 93 92 90 88 83 78 79 80 81 83 83 84 81 78 80 83 84 83 84 86 88 90 93 94 96 97 97 96 97 97
81 79 79 80 80 79 80 81 84 92 88 80 84 87 86 85 81 81 83 85 86 88 87 85 73 68 69 76 83 84 83 84 87 89 92 96 96 97 97 97 97 97 97
60 59 66 77 81 82 86 90 90 92 91 84 83 84 85 85 88 91 90 88 86 85 80 70 65 65 63 67 76 80 83 85 90 92 95 97 97 97 97 97 97 97 94
49 51 55 61 79 88 93 95 97 98 95 90 90 90 93 93 85 81 79 74 68 63 57 54 52 54 59 62 67 72 73 78 84 89 94 95 96 97 96 95 90 86 81
41 49 53 53 57 67 81 93 96 96 97 97 97 94 82 72 66 60 54 51 52 52 54 57 62 64 65 66 68 69 71 73 74 76 79 80 81 77 70 67 70 70 70